Saint Bonnet de Bellac- Haute Vienne - France
Donnes mto: mardi, 26/06/2012
Date Horaire Temp. E. Hum. E. P.atmo. Pluie Vent Direction Direction Ensoleilleme Solaire P. de rose Temp au vent Rafales
26/06/2012 00:00 18,3 C 89 % 1021,5 hPa 0,0 mm 0,0 km/h (0 Bft) SO 225 0 min 0 W/m 16,5 C 18,3 C 0,0 km/h (0 Bft)
26/06/2012 00:10 18,3 C 89 % 1021,6 hPa 0,0 mm 0,4 km/h (0 Bft) O-SO 247 0 min 0 W/m 16,5 C 18,3 C 4,0 km/h (1 Bft)
26/06/2012 00:20 18,3 C 89 % 1021,6 hPa 0,0 mm 0,0 km/h (0 Bft) SO 225 0 min 0 W/m 16,5 C 18,3 C 3,6 km/h (1 Bft)
26/06/2012 00:30 18,3 C 89 % 1021,6 hPa 0,0 mm 0,0 km/h (0 Bft) SO 225 0 min 0 W/m 16,5 C 18,3 C 0,0 km/h (0 Bft)
26/06/2012 00:40 18,3 C 89 % 1021,5 hPa 0,0 mm 0,0 km/h (0 Bft) SO 225 0 min 0 W/m 16,5 C 18,3 C 0,0 km/h (0 Bft)
26/06/2012 00:50 18,3 C 89 % 1021,6 hPa 0,0 mm 1,4 km/h (1 Bft) S-SO 202 0 min 0 W/m 16,5 C 18,3 C 4,3 km/h (1 Bft)
26/06/2012 01:00 18,3 C 89 % 1021,5 hPa 0,0 mm 1,8 km/h (1 Bft) SO 225 0 min 0 W/m 16,5 C 18,3 C 4,0 km/h (1 Bft)
26/06/2012 01:10 18,3 C 89 % 1021,5 hPa 0,0 mm 1,1 km/h (1 Bft) SO 225 0 min 0 W/m 16,5 C 18,3 C 4,0 km/h (1 Bft)
26/06/2012 01:20 18,3 C 89 % 1021,5 hPa 0,0 mm 0,7 km/h (0 Bft) SO 225 0 min 0 W/m 16,5 C 18,3 C 3,6 km/h (1 Bft)
26/06/2012 01:30 18,2 C 89 % 1021,5 hPa 0,0 mm 0,0 km/h (0 Bft) O-SO 247 0 min 0 W/m 16,4 C 18,2 C 3,6 km/h (1 Bft)
26/06/2012 01:40 18,1 C 90 % 1021,6 hPa 0,0 mm 0,4 km/h (0 Bft) SO 225 0 min 0 W/m 16,4 C 18,1 C 0,4 km/h (0 Bft)
26/06/2012 01:50 18,1 C 90 % 1021,5 hPa 0,0 mm 1,8 km/h (1 Bft) SO 225 0 min 0 W/m 16,4 C 18,1 C 1,8 km/h (1 Bft)
26/06/2012 02:00 18,1 C 90 % 1021,5 hPa 0,0 mm 0,0 km/h (0 Bft) O-SO 247 0 min 0 W/m 16,4 C 18,1 C 0,0 km/h (0 Bft)
26/06/2012 02:10 18,0 C 90 % 1021,4 hPa 0,0 mm 0,4 km/h (0 Bft) SO 225 0 min 0 W/m 16,3 C 18,0 C 0,4 km/h (0 Bft)
26/06/2012 02:20 18,0 C 90 % 1021,4 hPa 0,0 mm 1,8 km/h (1 Bft) SO 225 0 min 0 W/m 16,3 C 18,0 C 4,3 km/h (1 Bft)
26/06/2012 02:30 17,9 C 91 % 1021,4 hPa 0,0 mm 0,0 km/h (0 Bft) SO 225 0 min 0 W/m 16,4 C 17,9 C 0,0 km/h (0 Bft)
26/06/2012 02:40 17,9 C 91 % 1021,3 hPa 0,0 mm 1,4 km/h (1 Bft) S-SO 202 0 min 0 W/m 16,4 C 17,9 C 4,0 km/h (1 Bft)
26/06/2012 02:50 17,9 C 91 % 1021,2 hPa 0,0 mm 3,2 km/h (1 Bft) S-SO 202 0 min 0 W/m 16,4 C 17,9 C 4,3 km/h (1 Bft)
26/06/2012 03:02 17,9 C 91 % 1021,2 hPa 0,0 mm 0,7 km/h (0 Bft) O-SO 247 0 min 0 W/m 16,4 C 17,9 C 3,2 km/h (1 Bft)
26/06/2012 03:10 17,8 C 91 % 1021,2 hPa 0,0 mm 0,7 km/h (0 Bft) SO 225 0 min 0 W/m 16,3 C 17,8 C 2,9 km/h (1 Bft)
26/06/2012 03:20 17,8 C 91 % 1021,1 hPa 0,0 mm 2,5 km/h (1 Bft) S-SO 202 0 min 0 W/m 16,3 C 17,8 C 3,6 km/h (1 Bft)
26/06/2012 03:30 17,8 C 91 % 1021,0 hPa 0,0 mm 0,4 km/h (0 Bft) O-SO 247 0 min 0 W/m 16,3 C 17,8 C 3,6 km/h (1 Bft)
26/06/2012 03:40 17,8 C 91 % 1021,2 hPa 0,0 mm 3,2 km/h (1 Bft) S 180 0 min 0 W/m 16,3 C 17,8 C 6,1 km/h (2 Bft)
26/06/2012 03:50 17,7 C 91 % 1021,1 hPa 0,0 mm 1,8 km/h (1 Bft) SO 225 0 min 0 W/m 16,2 C 17,7 C 4,3 km/h (1 Bft)
26/06/2012 04:00 17,6 C 91 % 1021,1 hPa 0,0 mm 0,4 km/h (0 Bft) O 270 0 min 0 W/m 16,1 C 17,6 C 4,0 km/h (1 Bft)
26/06/2012 04:10 17,6 C 91 % 1021,1 hPa 0,0 mm 0,4 km/h (0 Bft) SO 225 0 min 0 W/m 16,1 C 17,6 C 0,4 km/h (0 Bft)
26/06/2012 04:20 17,6 C 91 % 1021,1 hPa 0,0 mm 3,2 km/h (1 Bft) S-SO 202 0 min 0 W/m 16,1 C 17,6 C 4,3 km/h (1 Bft)
26/06/2012 04:30 17,5 C 90 % 1021,0 hPa 0,0 mm 0,4 km/h (0 Bft) SO 225 0 min 0 W/m 15,8 C 17,5 C 3,2 km/h (1 Bft)
26/06/2012 04:40 17,5 C 90 % 1021,0 hPa 0,0 mm 0,4 km/h (0 Bft) SO 225 0 min 0 W/m 15,8 C 17,5 C 3,2 km/h (1 Bft)
26/06/2012 04:50 17,4 C 90 % 1021,1 hPa 0,0 mm 0,0 km/h (0 Bft) SO 225 0 min 0 W/m 15,7 C 17,4 C 0,0 km/h (0 Bft)
26/06/2012 05:00 17,4 C 90 % 1021,1 hPa 0,0 mm 1,8 km/h (1 Bft) SO 225 0 min 0 W/m 15,7 C 17,4 C 4,3 km/h (1 Bft)
26/06/2012 05:10 17,4 C 90 % 1021,0 hPa 0,0 mm 0,0 km/h (0 Bft) SO 225 0 min 0 W/m 15,7 C 17,4 C 0,0 km/h (0 Bft)
26/06/2012 05:20 17,4 C 90 % 1021,1 hPa 0,0 mm 0,0 km/h (0 Bft) S-SO 202 0 min 0 W/m 15,7 C 17,4 C 0,0 km/h (0 Bft)
26/06/2012 05:30 17,4 C 91 % 1021,2 hPa 0,0 mm 0,0 km/h (0 Bft) S-SO 202 0 min 0 W/m 15,9 C 17,4 C 0,0 km/h (0 Bft)
26/06/2012 05:40 17,4 C 91 % 1021,2 hPa 0,0 mm 0,0 km/h (0 Bft) S-SO 202 0 min 0 W/m 15,9 C 17,4 C 0,0 km/h (0 Bft)
26/06/2012 05:50 17,4 C 91 % 1021,2 hPa 0,0 mm 0,0 km/h (0 Bft) S-SO 202 0 min 0 W/m 15,9 C 17,4 C 0,0 km/h (0 Bft)
26/06/2012 06:00 17,3 C 91 % 1021,4 hPa 0,0 mm 0,0 km/h (0 Bft) S-SO 202 0 min 0 W/m 15,8 C 17,3 C 0,0 km/h (0 Bft)
26/06/2012 06:10 17,3 C 91 % 1021,4 hPa 0,0 mm 0,0 km/h (0 Bft) S-SO 202 0 min 0 W/m 15,8 C 17,3 C 0,0 km/h (0 Bft)
26/06/2012 06:20 17,3 C 91 % 1021,4 hPa 0,0 mm 0,0 km/h (0 Bft) S-SO 202 0 min 0 W/m 15,8 C 17,3 C 0,0 km/h (0 Bft)
26/06/2012 06:30 17,3 C 92 % 1021,6 hPa 0,0 mm 0,4 km/h (0 Bft) SO 225 0 min 0 W/m 16,0 C 17,3 C 3,6 km/h (1 Bft)
26/06/2012 06:40 17,3 C 92 % 1021,7 hPa 0,0 mm 0,0 km/h (0 Bft) SO 225 0 min 0 W/m 16,0 C 17,3 C 0,0 km/h (0 Bft)
26/06/2012 06:50 17,3 C 92 % 1021,8 hPa 0,0 mm 1,1 km/h (1 Bft) S-SO 202 0 min 0 W/m 16,0 C 17,3 C 1,8 km/h (1 Bft)
26/06/2012 07:00 17,4 C 92 % 1021,9 hPa 0,0 mm 0,0 km/h (0 Bft) O-SO 247 0 min 0 W/m 16,1 C 17,4 C 0,0 km/h (0 Bft)
26/06/2012 07:10 17,4 C 92 % 1021,9 hPa 0,0 mm 0,4 km/h (0 Bft) SO 225 0 min 0 W/m 16,1 C 17,4 C 3,2 km/h (1 Bft)
26/06/2012 07:20 17,4 C 92 % 1021,8 hPa 0,0 mm 0,4 km/h (0 Bft) O-SO 247 0 min 0 W/m 16,1 C 17,4 C 2,9 km/h (1 Bft)
26/06/2012 07:30 17,4 C 92 % 1021,9 hPa 0,0 mm 0,7 km/h (0 Bft) SO 225 0 min 0 W/m 16,1 C 17,4 C 3,6 km/h (1 Bft)
26/06/2012 07:40 17,5 C 91 % 1021,9 hPa 0,0 mm 4,0 km/h (1 Bft) SO 225 0 min 0 W/m 16,0 C 17,5 C 7,2 km/h (2 Bft)
26/06/2012 07:50 17,5 C 91 % 1022,0 hPa 0,0 mm 1,4 km/h (1 Bft) SO 225 0 min 0 W/m 16,0 C 17,5 C 1,4 km/h (1 Bft)
26/06/2012 08:00 17,6 C 91 % 1022,1 hPa 0,0 mm 3,2 km/h (1 Bft) SO 225 0 min 0 W/m 16,1 C 17,6 C 4,3 km/h (1 Bft)
26/06/2012 08:10 17,6 C 91 % 1022,1 hPa 0,0 mm 0,0 km/h (0 Bft) O-SO 247 0 min 0 W/m 16,1 C 17,6 C 0,0 km/h (0 Bft)
26/06/2012 08:20 17,8 C 91 % 1022,2 hPa 0,0 mm 2,2 km/h (1 Bft) S-SO 202 0 min 0 W/m 16,3 C 17,8 C 4,3 km/h (1 Bft)
26/06/2012 08:30 17,9 C 90 % 1022,2 hPa 0,0 mm 2,9 km/h (1 Bft) SO 225 0 min 0 W/m 16,2 C 17,9 C 4,7 km/h (1 Bft)
26/06/2012 08:40 18,1 C 90 % 1022,3 hPa 0,0 mm 1,8 km/h (1 Bft) O-SO 247 0 min 0 W/m 16,4 C 18,1 C 1,8 km/h (1 Bft)
26/06/2012 08:50 18,2 C 89 % 1022,4 hPa 0,0 mm 2,2 km/h (1 Bft) SO 225 0 min 0 W/m 16,4 C 18,2 C 4,3 km/h (1 Bft)
26/06/2012 09:00 18,3 C 89 % 1022,2 hPa 0,0 mm 0,4 km/h (0 Bft) O-SO 247 0 min 0 W/m 16,5 C 18,3 C 3,6 km/h (1 Bft)
26/06/2012 09:10 18,5 C 88 % 1022,2 hPa 0,0 mm 1,8 km/h (1 Bft) O-SO 247 0 min 0 W/m 16,5 C 18,5 C 6,8 km/h (2 Bft)
26/06/2012 09:20 18,8 C 87 % 1022,2 hPa 0,0 mm 2,2 km/h (1 Bft) O-SO 247 0 min 0 W/m 16,6 C 18,8 C 4,3 km/h (1 Bft)
26/06/2012 09:30 19,1 C 87 % 1022,3 hPa 0,0 mm 2,9 km/h (1 Bft) SO 225 0 min 0 W/m 16,9 C 19,1 C 4,0 km/h (1 Bft)
26/06/2012 09:40 19,4 C 87 % 1022,4 hPa 0,0 mm 0,0 km/h (0 Bft) O-SO 247 0 min 0 W/m 17,2 C 19,4 C 3,6 km/h (1 Bft)
26/06/2012 09:50 19,6 C 85 % 1022,5 hPa 0,0 mm 1,1 km/h (1 Bft) S-SO 202 0 min 0 W/m 17,0 C 19,6 C 1,1 km/h (1 Bft)
26/06/2012 10:00 19,8 C 85 % 1022,6 hPa 0,0 mm 0,4 km/h (0 Bft) O-SO 247 0 min 0 W/m 17,2 C 19,8 C 4,0 km/h (1 Bft)
26/06/2012 10:10 19,9 C 85 % 1022,5 hPa 0,0 mm 1,4 km/h (1 Bft) S-SO 202 0 min 0 W/m 17,3 C 19,9 C 3,6 km/h (1 Bft)
26/06/2012 10:20 20,2 C 84 % 1022,6 hPa 0,0 mm 3,2 km/h (1 Bft) S-SO 202 0 min 0 W/m 17,4 C 20,2 C 5,8 km/h (2 Bft)
26/06/2012 10:30 20,4 C 83 % 1022,5 hPa 0,0 mm 6,5 km/h (2 Bft) O-NO 292 0 min 0 W/m 17,4 C 20,4 C 7,9 km/h (2 Bft)
26/06/2012 10:40 20,9 C 83 % 1022,7 hPa 0,0 mm 0,4 km/h (0 Bft) O 270 0 min 0 W/m 17,9 C 20,9 C 0,4 km/h (0 Bft)
26/06/2012 10:50 21,5 C 81 % 1022,7 hPa 0,0 mm 0,4 km/h (0 Bft) S-SO 202 0 min 0 W/m 18,1 C 21,5 C 4,0 km/h (1 Bft)
26/06/2012 11:00 21,7 C 80 % 1022,7 hPa 0,0 mm 0,4 km/h (0 Bft) O-NO 292 0 min 0 W/m 18,1 C 21,7 C 3,6 km/h (1 Bft)
26/06/2012 11:10 21,8 C 79 % 1022,7 hPa 0,0 mm 2,9 km/h (1 Bft) S-SO 202 0 min 0 W/m 18,0 C 21,8 C 4,0 km/h (1 Bft)
26/06/2012 11:20 22,0 C 79 % 1022,7 hPa 0,0 mm 2,9 km/h (1 Bft) SO 225 0 min 0 W/m 18,2 C 22,0 C 6,5 km/h (2 Bft)
26/06/2012 11:30 22,4 C 78 % 1022,7 hPa 0,0 mm 3,6 km/h (1 Bft) S-SO 202 0 min 0 W/m 18,4 C 22,4 C 6,8 km/h (2 Bft)
26/06/2012 11:40 22,9 C 77 % 1022,7 hPa 0,0 mm 1,8 km/h (1 Bft) S-SO 202 0 min 0 W/m 18,6 C 22,9 C 2,9 km/h (1 Bft)
26/06/2012 11:50 23,2 C 76 % 1022,8 hPa 0,0 mm 0,0 km/h (0 Bft) NO 315 0 min 0 W/m 18,7 C 23,2 C 0,0 km/h (0 Bft)
26/06/2012 12:00 23,7 C 74 % 1022,7 hPa 0,0 mm 2,2 km/h (1 Bft) S-SO 202 0 min 0 W/m 18,8 C 23,7 C 4,0 km/h (1 Bft)
26/06/2012 12:10 23,8 C 73 % 1022,7 hPa 0,0 mm 5,4 km/h (2 Bft) S-SO 202 0 min 0 W/m 18,7 C 23,8 C 7,6 km/h (2 Bft)
26/06/2012 12:20 23,9 C 74 % 1022,7 hPa 0,0 mm 0,0 km/h (0 Bft) S 180 0 min 0 W/m 19,0 C 23,9 C 0,0 km/h (0 Bft)
26/06/2012 12:30 24,5 C 72 % 1022,8 hPa 0,0 mm 0,0 km/h (0 Bft) O 270 0 min 0 W/m 19,1 C 24,5 C 0,0 km/h (0 Bft)
26/06/2012 12:40 24,8 C 70 % 1022,7 hPa 0,0 mm 1,1 km/h (1 Bft) SO 225 0 min 0 W/m 18,9 C 24,8 C 4,0 km/h (1 Bft)
26/06/2012 12:50 24,6 C 71 % 1022,7 hPa 0,0 mm 1,1 km/h (1 Bft) S-SO 202 0 min 0 W/m 19,0 C 24,6 C 3,2 km/h (1 Bft)
26/06/2012 13:00 24,8 C 71 % 1022,7 hPa 0,0 mm 2,9 km/h (1 Bft) S 180 0 min 0 W/m 19,2 C 24,8 C 4,7 km/h (1 Bft)
26/06/2012 13:10 25,2 C 71 % 1022,7 hPa 0,0 mm 1,8 km/h (1 Bft) O 270 0 min 0 W/m 19,6 C 25,2 C 3,2 km/h (1 Bft)
26/06/2012 13:20 25,6 C 70 % 1022,7 hPa 0,0 mm 3,2 km/h (1 Bft) O 270 0 min 0 W/m 19,7 C 25,6 C 4,3 km/h (1 Bft)
26/06/2012 13:30 25,6 C 69 % 1022,8 hPa 0,0 mm 0,4 km/h (0 Bft) O-NO 292 0 min 0 W/m 19,5 C 25,6 C 3,6 km/h (1 Bft)
26/06/2012 13:40 25,7 C 71 % 1022,7 hPa 0,0 mm 1,1 km/h (1 Bft) NO 315 0 min 0 W/m 20,0 C 25,7 C 3,2 km/h (1 Bft)
26/06/2012 13:50 25,8 C 69 % 1022,7 hPa 0,0 mm 0,0 km/h (0 Bft) S 180 0 min 0 W/m 19,7 C 25,8 C 0,0 km/h (0 Bft)
26/06/2012 14:00 25,9 C 67 % 1022,7 hPa 0,0 mm 0,4 km/h (0 Bft) O-SO 247 0 min 0 W/m 19,3 C 25,9 C 3,2 km/h (1 Bft)
26/06/2012 14:10 25,9 C 68 % 1022,6 hPa 0,0 mm 0,0 km/h (0 Bft) O 270 0 min 0 W/m 19,5 C 25,9 C 3,6 km/h (1 Bft)
26/06/2012 14:20 26,1 C 68 % 1022,6 hPa 0,0 mm 1,1 km/h (1 Bft) O 270 0 min 0 W/m 19,7 C 26,1 C 3,2 km/h (1 Bft)
26/06/2012 14:30 26,3 C 67 % 1022,6 hPa 0,0 mm 0,0 km/h (0 Bft) O 270 0 min 0 W/m 19,7 C 26,3 C 1,4 km/h (1 Bft)
26/06/2012 14:40 26,6 C 66 % 1022,6 hPa 0,0 mm 4,3 km/h (1 Bft) N 360 0 min 0 W/m 19,7 C 26,6 C 4,3 km/h (1 Bft)
26/06/2012 14:50 27,1 C 66 % 1022,5 hPa 0,0 mm 2,9 km/h (1 Bft) NO 315 0 min 0 W/m 20,2 C 27,1 C 2,9 km/h (1 Bft)
26/06/2012 15:00 27,1 C 64 % 1022,5 hPa 0,0 mm 1,8 km/h (1 Bft) SO 225 0 min 0 W/m 19,7 C 27,1 C 3,6 km/h (1 Bft)
26/06/2012 15:10 26,9 C 65 % 1022,5 hPa 0,0 mm 0,0 km/h (0 Bft) SO 225 0 min 0 W/m 19,7 C 26,9 C 0,0 km/h (0 Bft)
26/06/2012 15:20 27,1 C 64 % 1022,4 hPa 0,0 mm 1,1 km/h (1 Bft) NO 315 0 min 0 W/m 19,7 C 27,1 C 4,3 km/h (1 Bft)
26/06/2012 15:30 27,3 C 64 % 1022,4 hPa 0,0 mm 0,7 km/h (0 Bft) O-NO 292 0 min 0 W/m 19,9 C 27,3 C 3,6 km/h (1 Bft)
26/06/2012 15:40 27,2 C 64 % 1022,4 hPa 0,0 mm 1,1 km/h (1 Bft) O 270 0 min 0 W/m 19,8 C 27,2 C 3,6 km/h (1 Bft)
26/06/2012 15:50 27,1 C 64 % 1022,4 hPa 0,0 mm 7,9 km/h (2 Bft) NO 315 0 min 0 W/m 19,7 C 27,1 C 12,6 km/h (3 Bft)
26/06/2012 16:00 27,1 C 65 % 1022,4 hPa 0,0 mm 3,6 km/h (1 Bft) N-NO 337 0 min 0 W/m 19,9 C 27,1 C 6,8 km/h (2 Bft)
26/06/2012 16:10 27,1 C 65 % 1022,4 hPa 0,0 mm 0,0 km/h (0 Bft) N-NO 337 0 min 0 W/m 19,9 C 27,1 C 0,0 km/h (0 Bft)
26/06/2012 16:20 27,4 C 66 % 1022,4 hPa 0,0 mm 3,2 km/h (1 Bft) NO 315 0 min 0 W/m 20,5 C 27,4 C 7,2 km/h (2 Bft)
26/06/2012 16:30 27,8 C 64 % 1022,4 hPa 0,0 mm 0,0 km/h (0 Bft) NO 315 0 min 0 W/m 20,3 C 27,8 C 0,0 km/h (0 Bft)
26/06/2012 16:40 28,1 C 63 % 1022,4 hPa 0,0 mm 2,9 km/h (1 Bft) N-NE 22 0 min 0 W/m 20,4 C 28,1 C 2,9 km/h (1 Bft)
26/06/2012 16:50 28,3 C 62 % 1022,4 hPa 0,0 mm 2,2 km/h (1 Bft) N 360 0 min 0 W/m 20,3 C 28,3 C 4,7 km/h (1 Bft)
26/06/2012 17:00 28,2 C 62 % 1022,4 hPa 0,0 mm 0,0 km/h (0 Bft) NE 45 0 min 0 W/m 20,2 C 28,2 C 0,0 km/h (0 Bft)
26/06/2012 17:10 28,2 C 62 % 1022,2 hPa 0,0 mm 0,7 km/h (0 Bft) N-NE 22 0 min 0 W/m 20,2 C 28,2 C 0,7 km/h (0 Bft)
26/06/2012 17:20 28,2 C 62 % 1022,2 hPa 0,0 mm 0,0 km/h (0 Bft) N-NO 337 0 min 0 W/m 20,2 C 28,2 C 0,0 km/h (0 Bft)
26/06/2012 17:30 28,3 C 62 % 1022,1 hPa 0,0 mm 0,0 km/h (0 Bft) NO 315 0 min 0 W/m 20,3 C 28,3 C 0,0 km/h (0 Bft)
26/06/2012 17:40 28,2 C 63 % 1022,2 hPa 0,0 mm 0,0 km/h (0 Bft) NO 315 0 min 0 W/m 20,5 C 28,2 C 0,0 km/h (0 Bft)
26/06/2012 17:50 27,9 C 63 % 1022,1 hPa 0,0 mm 1,8 km/h (1 Bft) O-NO 292 0 min 0 W/m 20,2 C 27,9 C 2,9 km/h (1 Bft)
26/06/2012 18:00 27,9 C 63 % 1022,1 hPa 0,0 mm 3,2 km/h (1 Bft) N-NO 337 0 min 0 W/m 20,2 C 27,9 C 3,2 km/h (1 Bft)
26/06/2012 18:10 27,9 C 62 % 1022,1 hPa 0,0 mm 1,1 km/h (1 Bft) N-NO 337 0 min 0 W/m 19,9 C 27,9 C 3,2 km/h (1 Bft)
26/06/2012 18:20 27,7 C 63 % 1022,0 hPa 0,0 mm 0,4 km/h (0 Bft) N 360 0 min 0 W/m 20,0 C 27,7 C 2,9 km/h (1 Bft)
26/06/2012 18:30 27,5 C 64 % 1022,0 hPa 0,0 mm 1,1 km/h (1 Bft) NO 315 0 min 0 W/m 20,1 C 27,5 C 1,1 km/h (1 Bft)
26/06/2012 18:40 27,6 C 64 % 1021,9 hPa 0,0 mm 0,0 km/h (0 Bft) NO 315 0 min 0 W/m 20,2 C 27,6 C 0,0 km/h (0 Bft)
26/06/2012 18:50 28,0 C 62 % 1021,9 hPa 0,0 mm 0,0 km/h (0 Bft) O-NO 292 0 min 0 W/m 20,0 C 28,0 C 1,4 km/h (1 Bft)
26/06/2012 19:00 28,3 C 62 % 1021,9 hPa 0,0 mm 2,9 km/h (1 Bft) NO 315 0 min 0 W/m 20,3 C 28,3 C 3,6 km/h (1 Bft)
26/06/2012 19:10 28,4 C 61 % 1021,9 hPa 0,0 mm 2,5 km/h (1 Bft) N 360 0 min 0 W/m 20,1 C 28,4 C 4,3 km/h (1 Bft)
26/06/2012 19:20 28,4 C 60 % 1021,9 hPa 0,0 mm 1,1 km/h (1 Bft) N-NE 22 0 min 0 W/m 19,9 C 28,4 C 3,6 km/h (1 Bft)
26/06/2012 19:30 28,3 C 60 % 1021,8 hPa 0,0 mm 3,2 km/h (1 Bft) N-NE 22 0 min 0 W/m 19,8 C 28,3 C 6,1 km/h (2 Bft)
26/06/2012 19:40 27,9 C 61 % 1021,8 hPa 0,0 mm 0,4 km/h (0 Bft) N-NE 22 0 min 0 W/m 19,7 C 27,9 C 0,4 km/h (0 Bft)
26/06/2012 19:50 27,7 C 62 % 1021,8 hPa 0,0 mm 1,4 km/h (1 Bft) N-NE 22 0 min 0 W/m 19,7 C 27,7 C 3,6 km/h (1 Bft)
26/06/2012 20:00 27,4 C 62 % 1021,8 hPa 0,0 mm 2,5 km/h (1 Bft) N 360 0 min 0 W/m 19,5 C 27,4 C 2,5 km/h (1 Bft)
26/06/2012 20:10 27,0 C 63 % 1021,7 hPa 0,0 mm 2,2 km/h (1 Bft) N-NE 22 0 min 0 W/m 19,3 C 27,0 C 6,5 km/h (2 Bft)
26/06/2012 20:20 26,6 C 64 % 1021,8 hPa 0,0 mm 4,0 km/h (1 Bft) N 360 0 min 0 W/m 19,2 C 26,6 C 4,0 km/h (1 Bft)
26/06/2012 20:30 26,1 C 65 % 1021,8 hPa 0,0 mm 1,1 km/h (1 Bft) NE 45 0 min 0 W/m 19,0 C 26,1 C 4,0 km/h (1 Bft)
26/06/2012 20:40 25,7 C 66 % 1021,8 hPa 0,0 mm 0,0 km/h (0 Bft) N-NE 22 0 min 0 W/m 18,9 C 25,7 C 0,0 km/h (0 Bft)
26/06/2012 20:50 25,3 C 68 % 1021,8 hPa 0,0 mm 0,0 km/h (0 Bft) N-NE 22 0 min 0 W/m 19,0 C 25,3 C 0,0 km/h (0 Bft)
26/06/2012 21:00 24,8 C 69 % 1021,8 hPa 0,0 mm 0,4 km/h (0 Bft) NE 45 0 min 0 W/m 18,7 C 24,8 C 0,4 km/h (0 Bft)
26/06/2012 21:10 24,3 C 70 % 1021,7 hPa 0,0 mm 0,0 km/h (0 Bft) N-NE 22 0 min 0 W/m 18,5 C 24,3 C 0,0 km/h (0 Bft)
26/06/2012 21:20 23,9 C 71 % 1021,7 hPa 0,0 mm 0,0 km/h (0 Bft) N-NE 22 0 min 0 W/m 18,3 C 23,9 C 0,0 km/h (0 Bft)
26/06/2012 21:30 23,6 C 72 % 1021,6 hPa 0,0 mm 0,0 km/h (0 Bft) N-NE 22 0 min 0 W/m 18,2 C 23,6 C 0,0 km/h (0 Bft)
26/06/2012 21:40 23,2 C 73 % 1021,7 hPa 0,0 mm 0,0 km/h (0 Bft) N-NE 22 0 min 0 W/m 18,1 C 23,2 C 0,0 km/h (0 Bft)
26/06/2012 21:50 22,8 C 75 % 1021,6 hPa 0,0 mm 0,0 km/h (0 Bft) N-NE 22 0 min 0 W/m 18,1 C 22,8 C 0,0 km/h (0 Bft)
26/06/2012 22:00 22,4 C 75 % 1021,6 hPa 0,0 mm 0,0 km/h (0 Bft) N-NE 22 0 min 0 W/m 17,7 C 22,4 C 0,0 km/h (0 Bft)
26/06/2012 22:10 22,0 C 76 % 1021,7 hPa 0,0 mm 0,0 km/h (0 Bft) N-NE 22 0 min 0 W/m 17,6 C 22,0 C 0,0 km/h (0 Bft)
_ Min-Heure 06:50 19:30 05:10 - 22:10 - - - - 05:20 06:50 22:10
Minimum _ 17,3 C 60 % 1021,0 hPa - 0,0 km/h (0 Bft) - - - - 15,7 C 17,3 C 0,0 km/h (0 Bft)
_ Max-Heure 19:20 07:30 13:30 22:10 15:50 - - 22:10 22:10 17:40 19:20 15:50
Maximum _ 28,4 C 92 % 1022,8 hPa 0,0 mm 7,9 km/h
NO (2 Bft)
- - 0 min 0 W/m 20,5 C 28,4 C 12,6 km/h
NO (3 Bft)
Moyenne _ 22,1 C 78 % 1022,0 hPa #0,0 mm 1,2 km/h (1 Bft) SO - #0 min. 0 W/m 17,9 C 22,1 C 2,7 km/h (1 Bft)
Saint Bonnet de Bellac- Haute Vienne - France